星链-34556 (STARLINK-34556)

导读

STARLINK-34556是美国于2025年7月2日发射的星链系列卫星,星链是美国太空探索技术公司打造的低轨卫星互联网星座项目,旨在为全球提供高速低延迟互联网服务,该卫星入轨后将进一步扩充星链星座的卫星规模,助力提升星座的服务覆盖范围与通信服务能力。

基本信息
目录编号:
64733
目录名称:
STARLINK-34556
国际标识:
2025-144K
轨道中心:
EARTH
卫星名称:
星链-34556
卫星全名:
星链-34556 (STARLINK-34556)
卫星状态:
在轨 (已飞行430 天)
发射日期:
2025-07-02 UTC
国别 :
美国 (US)
星等 :
--
轨道信息
数据来源 国际轨道数据
星历时间: 2026-09-05T04:48:37+0800
15小时前
查看轨道信息
半长轴: 6840.836km
偏心率: 0.0001217
轨道倾角: 53.159°
近地点辐角 84.483°
升交点赤经 62.472°
平近点角 275.631°
近地点: 461.866km
远地点: 463.532km
周期: 93.848分钟
每日圈数: 15.344016
详细信息
固有亮度:
5
最大亮度:
2.5
卫星平台:
Starlink V1.0
覆盖范围:
全球
运营商:
太空探索技术公司
运营商所在国:
美国
制造商(研发单位):
太空探索技术公司
制造商所在国:
美国
使用方式:
暂无
卫星简介
Starlink 计划是 SpaceX 推出的全球卫星互联网项目,通过发射低轨道卫星,为全球尤其是偏远地区提供高速、低延迟的互联网服务。自 2019 年起,Starlink 已部署数千颗卫星,旨在缩小全球数字鸿沟,推动互联网普及。该项目还为军事、航空等行业提供通信支持,带来广泛经济效益。
2D轨道图
3D轨道图
轨道高度分析图
轨道倾角分析图
轨道综合分析图
查看轨道综合分析图
交会数据列表
事件ID 空间交会对象 最接近时刻(TCA) 交会距离 交会风险概率(CRP) 交会风险指数(CRI) 操作
CDM_260829-132706-473306-600921
2026-08-29T
13:27:40+0000
2.163 km
极远距离
1.521487E-6 低风险 0.39
CDM_260907-233505-372406-473321
2026-09-07T
23:35:51+0000
2.903 km
极远距离
1.050544E-6 低风险 0.35